This is the latest recevied weather packets stored in our database for station/object WX4ET. If no packets are shown the sender has not sent any weather packets the latest 10 day(s).
| Time | Temp. | Humidity | Pressure | Rain* | Wind** | Luminosity | Snow |
|---|---|---|---|---|---|---|---|
| 1777832730 | 16.11° C | 38% | 1014.5 hPa | 0 mm | - | 621 W/m² | - |
| 1777832427 | 16.11° C | 37% | 1014.5 hPa | 0 mm | - | 636 W/m² | - |
| 1777832124 | 16.11° C | 42% | 1014.5 hPa | 0 mm | - | 650 W/m² | - |
| 1777831820 | 16.67° C | 38% | 1014.6 hPa | 0 mm | - | 649 W/m² | - |
| 1777831518 | 16.11° C | 37% | 1014.4 hPa | 0 mm | - | 632 W/m² | - |
| 1777831215 | 15.56° C | 38% | 1014.7 hPa | 0 mm | - | 628 W/m² | - |
| 1777830913 | 16.11° C | 39% | 1014.8 hPa | 0 mm | - | 658 W/m² | - |
| 1777830609 | 16.11° C | 43% | 1014.7 hPa | 0 mm | - | 657 W/m² | - |
| 1777830307 | 16.11° C | 42% | 1015 hPa | 0 mm | - | 654 W/m² | - |
| 1777830003 | 15° C | 39% | 1015 hPa | 0 mm | - | 655 W/m² | - |
| 1777829698 | 15.56° C | 39% | 1015.1 hPa | 0 mm | - | 651 W/m² | - |
| 1777829395 | 15.56° C | 41% | 1015.2 hPa | 0 mm | - | 649 W/m² | - |
| 1777829092 | 15° C | 40% | 1015.1 hPa | 0 mm | - | 654 W/m² | - |
| 1777828789 | 14.44° C | 41% | 1015.4 hPa | 0 mm | - | 640 W/m² | - |
| 1777828485 | 15° C | 37% | 1015.3 hPa | 0 mm | - | 649 W/m² | - |
| 1777828183 | 14.44° C | 40% | 1015.3 hPa | 0 mm | - | 638 W/m² | - |
| 1777827879 | 14.44° C | 38% | 1015.4 hPa | 0 mm | - | 638 W/m² | - |
| 1777827576 | 14.44° C | 40% | 1015.7 hPa | 0 mm | - | 636 W/m² | - |
| 1777827274 | 15° C | 39% | 1015.5 hPa | 0 mm | - | 650 W/m² | - |
| 1777826970 | 15° C | 39% | 1015.7 hPa | 0 mm | - | 650 W/m² | - |
| 1777826667 | 14.44° C | 42% | 1015.5 hPa | 0 mm | - | 615 W/m² | - |
| 1777826363 | 14.44° C | 39% | 1015.8 hPa | 0 mm | - | 613 W/m² | - |
| 1777826061 | 15° C | 40% | 1016 hPa | 0 mm | - | 622 W/m² | - |
| 1777825758 | 15.56° C | 36% | 1016 hPa | 0 mm | - | 620 W/m² | - |
| 1777825456 | 13.89° C | 41% | 1016.1 hPa | 0 mm | - | 623 W/m² | - |
* Rain latest hour (hover to see other rain measurements)
** Current wind speed in m/s (hover to see current wind gust speed)